GFSMA_925_rhum_087.txt.gz
RH
81 80 81 79 82 84 80 75 66 51 49 56 59 64 69 69 66 65 65 69 65 67 74 86 88 88 89 89 88 89 91 90 89 89 90 90 89 89 89 88 87 86 85
64 65 71 76 74 75 77 73 70 60 48 59 67 68 67 67 61 60 61 63 63 64 65 84 85 86 87 88 87 87 87 87 85 84 84 85 86 86 87 87 86 86 84
67 64 68 70 70 71 76 77 74 68 56 64 71 71 65 66 65 57 57 56 59 59 65 79 85 86 85 87 86 83 82 81 79 78 77 78 80 81 82 82 83 83 83
71 75 68 67 65 65 65 68 67 70 70 61 69 72 70 61 59 55 56 55 54 56 64 73 80 84 85 85 85 81 77 77 76 74 72 71 72 74 76 79 80 81 82
74 76 68 64 63 60 64 66 70 71 73 73 75 75 75 63 55 52 53 55 55 57 62 71 74 74 79 82 82 83 80 75 75 69 68 69 71 72 74 78 82 84 85
80 74 69 64 63 57 60 66 72 71 70 69 71 73 74 70 59 54 52 52 54 56 62 67 73 72 72 71 78 79 78 76 73 69 68 68 70 74 78 79 80 81 82
72 72 69 65 64 59 56 59 65 72 73 75 76 76 73 69 64 57 53 50 49 53 60 68 70 72 68 68 65 76 72 74 75 71 67 66 74 73 76 78 80 79 80
61 65 66 66 65 63 59 59 66 73 73 74 74 71 82 70 63 61 56 50 48 51 56 63 72 72 67 62 59 62 70 70 71 68 63 71 70 72 74 76 76 76 77
61 64 63 65 66 66 65 61 59 67 69 70 72 69 84 89 73 56 53 54 51 50 52 54 62 70 70 64 65 64 65 70 78 79 87 82 80 80 82 83 83 89 81
65 65 65 66 69 68 68 67 64 61 64 69 76 74 69 65 72 77 55 52 50 50 49 48 50 56 69 68 66 64 62 78 68 85 90 96 98 93 88 89 88 83 93
79 83 78 75 74 74 73 72 70 68 67 67 72 72 77 78 73 73 78 72 60 56 56 52 51 54 57 65 71 69 72 73 87 98 100 98 100 100 100 100 100 99 99
88 88 90 96 96 91 85 80 76 76 76 74 76 76 75 80 85 79 84 78 74 71 66 62 59 57 60 64 69 69 75 88 90 99 100 100 100 100 100 100 100 100 99
81 78 82 82 82 83 86 89 86 91 91 87 82 82 86 86 82 81 84 92 86 79 72 69 69 66 64 65 72 78 87 93 96 100 100 100 100 100 100 100 99 99 99
60 69 85 91 85 85 82 81 79 85 99 100 100 100 100 100 99 94 92 93 96 90 82 73 72 70 70 72 74 76 85 100 99 98 98 100 100 99 98 99 97 96 97
48 62 75 86 88 89 92 89 89 85 84 89 91 99 99 100 100 100 100 99 96 99 97 88 78 78 72 71 80 83 83 92 100 99 98 98 98 98 99 99 94 87 80
68 80 84 89 97 99 99 92 85 78 75 83 94 99 99 100 99 100 99 98 96 98 97 92 88 86 84 86 91 99 99 99 98 98 98 99 100 97 85 78 78 78 78
82 89 94 99 100 100 100 99 100 90 92 100 98 99 99 99 100 99 97 96 95 95 98 100 100 100 100 100 99 100 98 91 88 83 86 80 80 79 78 77 75 76 77
89 89 91 94 94 97 99 99 99 96 96 94 98 99 99 99 98 96 93 92 93 95 96 98 100 98 96 94 92 86 71 65 59 60 70 81 80 77 75 75 75 79 82
90 90 90 89 89 91 91 92 92 94 88 94 96 97 94 94 93 94 92 91 88 86 86 88 93 92 79 66 64 64 67 68 66 66 65 58 55 68 80 82 85 87 85
78 78 80 82 84 87 90 90 89 89 89 92 94 95 94 93 90 87 86 86 82 80 83 82 77 72 70 77 77 73 67 63 59 56 49 38 56 55 56 72 88 81 78
80 82 84 87 88 90 91 90 90 93 91 92 92 91 88 87 89 91 88 86 81 70 67 64 76 80 84 76 71 67 66 63 46 35 52 54 54 49 54 58 57 57 59
85 86 87 87 89 91 92 91 88 88 89 86 99 97 99 99 99 99 81 67 64 64 63 81 87 85 80 78 75 73 67 66 70 63 71 60 56 55 58 58 58 79 89
88 88 89 87 90 96 88 81 78 78 88 99 99 99 94 73 56 57 78 75 87 93 89 85 83 83 84 80 75 73 68 72 87 78 78 68 58 56 58 57 58 61 86
93 92 95 98 99 100 98 86 86 89 91 88 78 53 42 54 66 64 65 70 75 80 75 76 78 70 63 69 78 87 88 91 87 73 78 86 67 66 60 58 64 69 95
99 99 100 100 98 100 95 92 83 60 44 46 50 54 66 81 92 78 53 55 62 68 70 76 77 78 86 89 88 85 82 88 79 77 80 88 86 81 73 64 66 67 69
99 100 99 93 84 74 56 43 35 34 40 50 65 74 67 68 77 78 55 49 47 44 52 54 56 62 67 74 78 78 81 86 92 91 87 90 91 91 88 68 63 60 61

GFSMA_925_rhum_090.txt.gz
RH
79 81 84 85 84 84 83 78 70 59 45 56 66 66 69 72 70 69 69 67 70 74 79 88 91 89 91 90 89 91 93 91 91 90 91 90 91 90 90 89 88 87 86
76 74 75 78 81 84 83 78 73 65 52 51 60 66 68 69 68 63 65 67 67 70 70 81 88 89 89 90 89 89 90 89 86 85 85 86 86 86 87 87 87 87 86
67 67 68 69 71 75 80 82 80 75 70 56 56 70 72 70 68 67 60 60 64 65 68 70 86 88 88 88 88 87 84 83 81 79 77 76 78 80 81 82 83 84 84
67 62 64 65 68 74 79 79 80 80 68 64 53 67 71 73 68 61 61 59 58 59 61 63 71 84 89 88 87 85 82 79 78 75 73 71 71 72 76 78 81 83 84
80 71 71 69 68 73 72 72 73 77 70 70 67 66 73 75 75 64 57 56 57 58 59 60 67 74 77 86 85 82 86 81 77 72 69 70 71 74 75 80 82 81 80
82 82 74 74 71 70 70 70 71 75 73 72 75 74 73 73 76 72 63 56 55 58 60 61 65 72 74 75 82 81 79 85 78 71 69 69 71 76 77 77 78 78 79
80 84 82 75 73 68 66 62 65 70 76 76 78 74 73 72 74 73 70 63 58 55 59 64 68 72 74 73 73 78 79 78 82 78 73 67 74 72 73 73 74 75 73
78 75 77 75 72 68 67 65 64 69 73 77 78 81 88 74 68 68 68 65 60 55 52 56 64 70 74 75 71 69 73 72 74 77 72 80 87 87 85 86 88 84 81
62 64 69 72 69 68 67 66 64 65 68 74 76 74 88 92 78 59 54 52 54 54 54 52 50 51 58 73 75 69 67 68 73 79 77 78 84 81 97 97 98 100 93
62 65 69 72 69 70 70 69 68 66 68 74 80 79 74 68 76 80 63 56 52 53 55 55 55 55 59 73 81 75 71 68 67 75 76 84 96 100 100 100 98 99 100
72 74 71 71 73 77 75 74 75 74 72 71 72 75 79 81 79 79 87 78 72 67 62 57 55 53 54 60 72 78 74 72 76 80 90 99 99 99 100 99 99 99 100
94 92 90 90 89 84 82 81 80 80 79 77 77 77 78 78 87 83 88 83 82 78 72 72 69 65 63 62 64 71 75 79 84 90 99 100 100 100 100 98 98 100 99
93 91 92 87 83 80 80 86 93 91 85 85 87 86 83 83 82 85 85 90 92 88 81 78 75 75 72 68 67 70 76 75 83 99 100 100 100 100 99 98 99 99 99
70 68 72 82 90 91 90 93 99 99 94 96 94 98 99 100 100 100 97 96 99 95 90 85 82 78 73 70 72 78 84 96 99 98 99 99 100 99 96 99 100 99 97
47 48 56 66 81 99 100 98 96 100 100 99 93 93 99 100 98 99 100 100 98 99 98 92 80 82 77 75 80 82 90 98 99 97 98 98 97 98 98 99 97 91 87
58 64 71 76 85 96 100 100 100 100 98 87 81 74 86 99 99 99 100 98 99 99 99 94 92 87 81 78 78 83 84 87 89 97 99 99 99 98 94 86 82 81 79
78 85 93 98 99 97 100 98 100 96 92 92 94 87 93 99 99 99 98 97 96 96 98 100 100 98 96 98 97 98 98 97 94 92 91 86 83 83 82 82 80 79 80
88 89 94 98 100 98 100 100 100 100 100 97 93 90 96 93 97 97 95 94 93 93 94 99 100 99 98 100 96 92 89 79 62 59 59 79 83 83 82 80 77 76 81
90 90 90 90 90 92 96 97 97 96 93 92 94 98 94 94 92 91 89 89 87 88 90 92 96 96 89 79 69 67 66 64 64 65 62 62 58 65 56 73 87 88 89
81 80 80 84 88 91 92 93 92 92 93 95 94 91 92 92 91 89 85 82 82 83 84 84 82 76 73 72 71 72 69 62 58 56 50 41 46 44 46 47 53 65 57
79 80 80 82 84 88 90 91 91 92 93 93 93 92 90 88 87 87 85 83 79 71 65 59 67 73 82 77 72 67 65 62 46 34 41 50 53 51 49 52 55 55 55
84 86 88 90 92 94 96 96 94 92 91 90 94 99 99 99 100 94 71 62 56 54 52 62 80 80 78 76 73 72 67 64 50 58 70 57 54 52 55 59 58 62 85
89 90 92 92 97 100 99 95 92 90 93 100 99 99 98 93 81 78 87 77 93 90 72 69 72 75 77 76 74 71 66 74 86 79 80 66 60 56 59 59 56 59 83
92 93 93 94 98 100 90 80 81 87 97 98 88 62 50 50 52 51 52 57 68 75 72 73 75 70 63 62 73 85 85 84 86 76 78 82 71 68 59 60 64 72 99
94 94 99 100 99 100 98 88 87 84 64 50 46 54 61 80 91 56 44 49 57 67 74 84 79 84 90 95 92 90 86 87 79 78 86 91 90 82 69 60 64 68 94
99 100 100 100 100 98 88 68 47 37 41 49 58 63 62 67 77 77 50 45 44 42 50 57 58 59 61 86 79 79 83 88 94 90 93 93 91 90 85 68 61 56 56

GFSMA_925_rhum_093.txt.gz
RH
78 81 85 89 89 86 83 77 70 68 57 64 67 67 69 71 71 70 70 69 68 72 83 87 93 90 92 89 90 92 93 91 90 91 90 90 91 89 89 89 88 87 85
73 76 80 83 82 80 81 79 76 70 64 57 60 64 65 67 69 67 65 66 65 67 73 88 91 90 90 90 90 90 91 88 85 84 84 84 84 86 86 85 85 85 84
77 71 74 77 76 78 81 81 80 75 71 64 55 60 69 72 69 67 67 64 64 67 66 74 89 90 90 90 90 89 85 84 81 79 76 75 74 76 79 81 82 83 84
74 76 74 69 69 75 77 78 80 80 74 68 62 54 67 72 73 70 64 61 60 62 64 66 72 88 91 90 89 88 86 81 70 68 72 71 71 73 75 79 82 83 82
79 72 64 64 68 74 77 77 80 77 74 68 64 60 58 67 74 75 73 64 59 59 60 62 67 74 81 89 89 84 89 84 80 70 66 71 72 72 70 77 78 77 78
81 82 73 70 73 74 76 77 75 73 74 70 72 73 72 71 72 71 72 71 64 58 60 63 66 70 75 76 85 86 83 91 83 78 68 69 65 70 72 76 77 79 76
83 83 83 80 78 80 71 71 69 72 76 78 82 80 69 66 68 68 72 74 72 66 60 58 62 64 66 71 74 82 82 81 89 82 76 71 74 58 67 72 79 82 85
84 84 83 83 82 78 76 72 72 72 76 76 81 83 72 70 66 64 65 68 66 66 62 59 55 57 65 73 76 75 76 80 80 88 81 73 71 71 79 98 100 99 92
81 81 80 80 81 83 77 71 70 70 76 73 74 74 78 74 75 61 58 55 55 57 58 56 56 57 61 69 77 80 76 73 78 76 87 74 72 82 92 98 99 99 96
79 81 84 78 73 80 80 75 71 71 72 82 79 78 74 71 75 79 64 59 59 56 56 57 57 57 56 55 59 74 81 77 76 92 100 82 84 99 98 100 100 97 98
73 70 68 72 77 79 81 79 76 78 78 78 74 77 80 82 82 80 85 76 74 71 68 65 60 59 58 58 59 64 75 81 88 96 100 96 98 99 98 97 98 99 98
91 84 80 79 77 77 77 77 79 83 81 79 78 79 76 80 90 90 90 86 83 84 82 78 75 74 69 66 64 65 76 81 96 99 97 97 99 98 99 100 99 89 100
95 96 100 99 96 95 96 98 94 90 88 87 85 84 82 82 83 84 86 89 94 89 84 83 81 78 77 74 71 72 78 86 88 98 95 99 100 99 98 98 100 100 99
90 88 86 90 92 92 92 93 97 99 98 94 91 90 92 91 92 97 99 96 99 98 95 89 85 81 80 75 72 70 74 85 95 97 99 99 94 95 97 99 100 99 98
57 56 57 60 65 75 90 100 100 100 100 100 100 100 100 100 98 99 100 100 98 99 95 92 86 83 80 76 85 83 84 97 100 98 93 91 94 99 98 97 99 92 88
51 53 56 59 63 65 86 100 99 99 100 100 100 100 96 95 86 98 99 100 100 99 98 95 93 89 82 81 82 84 89 98 97 93 90 98 99 98 94 90 86 85 83
68 70 74 88 91 92 92 96 100 100 100 100 98 92 92 96 91 96 98 96 97 98 99 100 97 94 90 90 88 88 92 92 94 94 93 93 88 85 84 84 84 83 83
82 85 89 99 98 91 93 98 100 100 99 99 93 98 97 98 94 94 94 94 93 93 94 99 100 100 100 100 98 96 92 88 79 65 63 71 84 84 84 78 82 79 78
88 88 89 90 93 98 99 100 100 100 100 100 98 97 96 95 94 92 87 85 86 88 90 94 99 98 96 92 81 72 67 63 59 58 58 62 60 57 56 55 57 86 91
85 84 83 84 86 90 93 97 98 98 98 97 97 96 93 90 87 86 84 80 81 80 83 87 87 86 81 74 69 73 70 63 58 54 51 46 37 34 37 35 44 50 56
80 81 81 81 82 84 88 92 95 94 93 94 94 92 91 89 84 80 78 79 77 77 78 77 82 80 83 78 73 66 65 58 52 38 39 42 46 47 46 46 48 49 50
84 84 86 87 90 91 93 94 93 93 93 92 92 95 95 93 88 82 75 67 60 55 51 62 68 71 77 75 67 70 69 65 44 49 74 71 55 56 54 54 54 52 51
88 90 92 95 99 100 100 98 95 92 91 93 95 96 98 98 91 87 90 92 90 56 54 51 63 67 73 70 67 67 63 70 76 82 82 70 58 62 57 55 52 50 62
91 93 96 98 99 99 100 97 93 93 98 100 100 95 78 63 56 44 49 54 61 63 63 62 65 65 60 57 61 74 81 80 85 81 75 79 76 74 61 59 62 92 98
94 94 94 97 97 98 88 87 89 96 95 72 53 49 54 62 61 46 39 44 54 64 78 74 70 82 84 93 91 87 90 93 75 80 85 91 90 87 74 66 64 85 96
96 99 100 100 100 99 92 91 86 71 50 50 62 73 71 72 87 48 36 36 38 40 49 57 57 57 58 94 77 77 78 90 93 87 93 98 98 94 87 68 64 62 61

GFSMA_925_rhum_099.txt.gz
RH
64 69 68 66 66 66 64 63 58 59 60 56 56 57 60 60 64 65 67 69 64 76 80 82 82 86 88 90 92 93 93 93 93 92 92 90 89 88 87 87 87 86 85
58 60 64 75 68 66 64 65 63 60 54 51 52 55 57 59 60 62 62 69 66 65 77 92 93 94 94 92 92 93 91 89 88 86 84 84 84 85 85 85 85 85 84
67 66 62 68 68 67 65 66 65 63 59 55 48 48 52 53 59 62 64 64 71 68 67 84 93 95 94 93 93 93 92 86 72 68 73 72 58 60 78 80 83 84 84
66 68 64 66 66 67 68 68 68 66 62 60 58 50 50 56 59 59 61 64 68 70 73 67 76 92 95 93 90 93 89 82 76 69 60 51 41 58 73 78 80 78 80
64 66 63 63 64 68 68 67 65 63 61 63 60 57 54 55 61 61 61 62 66 70 71 73 74 67 82 95 91 92 96 91 84 80 75 66 52 60 70 73 76 82 88
68 70 65 63 65 68 71 74 69 70 64 62 60 58 62 63 62 65 66 65 65 70 77 74 76 73 67 72 88 89 91 99 93 85 82 76 70 68 65 71 71 71 81
72 76 76 69 68 70 73 74 73 69 73 71 68 65 66 65 66 67 66 65 62 67 72 74 76 76 73 74 69 80 91 89 99 95 90 84 81 77 65 69 70 85 98
79 79 79 78 72 74 74 74 74 75 70 72 69 63 66 59 62 62 61 62 63 64 68 70 71 72 72 72 76 76 78 92 89 94 98 89 85 82 76 70 88 96 96
89 85 82 81 81 80 79 79 78 79 74 71 74 65 70 71 59 60 62 63 64 65 66 65 68 70 72 76 81 83 82 80 80 90 94 98 91 89 97 97 96 97 96
87 91 92 90 87 87 87 83 83 81 81 73 75 78 70 69 69 67 60 60 59 60 62 66 68 69 63 63 66 78 68 77 80 87 90 93 96 93 98 98 97 98 92
72 76 81 75 92 94 90 86 86 85 79 80 74 78 80 79 78 74 76 70 68 68 64 65 67 71 70 69 72 66 60 66 76 81 93 88 98 99 99 99 99 98 97
70 73 73 82 84 92 98 75 65 83 93 87 85 80 80 82 80 79 78 75 78 83 80 80 79 81 80 76 74 71 66 64 74 90 92 95 99 100 100 98 99 98 98
84 79 70 68 61 54 59 81 94 64 93 94 91 91 84 82 82 84 82 84 87 85 88 88 89 89 85 82 78 75 72 76 79 95 100 100 99 99 99 96 94 98 99
83 85 72 62 54 54 60 72 93 94 96 98 97 97 93 88 88 86 85 86 97 94 95 91 92 91 88 86 82 74 88 88 89 99 100 97 96 98 96 93 89 85 87
74 76 84 96 99 100 100 100 100 100 100 99 99 99 98 95 93 92 92 90 92 97 96 98 95 94 92 87 84 100 100 100 88 90 96 96 96 94 92 86 81 82 86
85 86 85 85 86 87 90 96 98 99 97 95 97 100 100 100 98 99 99 99 96 92 90 95 100 96 87 86 89 95 89 100 99 96 94 95 93 88 82 83 86 85 86
69 70 70 74 79 81 83 88 92 97 100 96 99 100 100 100 100 100 100 98 99 100 99 100 99 96 94 95 89 95 88 92 89 89 86 83 81 82 86 85 84 84 89
64 67 68 70 78 84 85 93 99 99 98 96 99 100 99 100 100 100 94 95 94 100 98 99 99 100 100 100 100 99 90 84 82 84 85 84 81 80 80 78 68 61 57
74 74 78 84 87 88 90 94 99 99 99 99 100 100 100 100 100 99 94 94 96 96 98 93 97 98 98 96 90 80 78 77 71 67 60 56 54 54 52 50 46 44 39
74 77 79 82 84 85 89 94 98 100 100 100 99 100 99 100 95 96 93 94 90 89 88 89 85 88 85 83 77 77 71 65 62 59 53 47 40 37 32 30 34 32 29
73 76 77 79 81 85 85 92 96 98 98 100 100 99 99 97 96 93 88 84 83 82 80 84 88 83 82 80 72 67 62 58 53 48 46 48 47 51 55 58 54 47 44
78 79 82 83 85 87 80 82 89 94 97 99 98 96 93 92 89 84 81 80 79 81 88 85 79 82 68 65 65 60 54 53 48 49 52 52 53 57 61 61 64 57 50
80 86 88 87 96 100 93 92 95 96 97 98 97 95 92 89 84 81 82 71 71 73 71 65 65 50 58 57 57 60 62 60 61 61 55 60 58 60 57 60 58 53 46
90 94 98 95 93 98 99 99 99 98 99 98 96 92 90 90 92 88 68 56 48 43 42 48 57 58 60 58 52 50 56 68 68 69 66 73 64 65 61 64 67 62 54
98 93 96 98 96 99 99 100 100 99 98 96 94 90 86 82 68 62 46 54 60 61 43 50 55 52 53 59 69 72 81 75 72 64 75 76 76 81 72 72 72 64 59
95 93 95 97 96 94 99 100 99 96 92 86 78 75 73 69 46 47 45 46 53 58 56 51 43 45 52 62 66 78 88 92 83 78 82 88 94 92 92 80 71 72 70

GFSMA_925_rhum_102.txt.gz
RH
75 78 78 79 70 66 72 71 65 63 63 61 58 58 59 62 64 66 68 68 60 65 72 70 73 83 90 93 93 93 94 94 93 92 91 90 90 88 88 88 87 87 87
75 74 75 72 69 66 65 64 61 57 57 56 54 56 58 60 62 64 65 69 68 61 69 81 82 90 94 94 94 93 90 90 86 85 84 83 81 84 83 84 85 86 85
59 64 66 66 68 67 66 66 65 64 60 54 49 50 54 56 57 61 64 66 69 70 63 76 94 91 94 96 92 95 88 72 64 56 49 43 50 66 76 77 81 80 81
65 64 63 71 70 69 67 67 67 66 64 61 58 50 49 53 57 61 62 65 67 70 72 68 71 92 95 95 90 87 84 80 76 72 64 51 38 40 53 69 65 76 83
67 69 67 65 67 68 69 69 69 67 65 62 61 58 53 52 55 60 60 62 65 68 71 73 73 68 78 91 94 92 95 92 85 82 77 68 56 44 59 66 70 70 70
65 68 65 64 66 68 69 69 68 66 65 63 64 62 58 58 55 59 62 64 64 66 68 74 74 75 72 72 89 91 92 96 89 84 85 78 72 65 60 70 70 75 84
65 67 67 63 64 67 70 73 73 70 72 66 67 63 63 63 66 66 66 68 66 66 68 73 76 77 78 75 72 72 93 93 97 97 92 85 82 78 75 68 70 93 96
71 73 76 74 66 69 71 75 76 74 71 72 71 70 83 70 66 65 66 65 65 64 65 70 74 75 76 74 73 75 74 74 85 95 99 97 91 87 84 85 81 97 96
87 82 79 79 76 70 72 74 75 75 75 72 72 72 85 86 72 63 63 63 63 65 66 68 69 71 71 74 76 80 81 80 80 93 94 95 97 92 89 96 98 99 97
95 88 85 81 82 81 78 79 79 78 78 77 74 72 70 75 86 83 63 63 64 63 66 67 66 67 70 72 77 80 82 80 80 81 92 93 91 98 95 99 99 95 98
79 80 84 88 89 86 87 83 84 84 83 80 78 77 79 75 76 88 91 70 61 61 61 63 65 65 66 69 70 70 70 69 68 76 85 94 90 95 100 99 100 99 92
81 84 85 80 83 80 82 80 77 73 68 78 79 78 80 83 88 88 94 84 81 75 72 72 74 75 75 78 77 76 74 69 67 73 95 95 93 82 99 99 99 99 98
71 80 89 84 83 76 71 68 66 63 73 82 85 79 76 88 86 82 83 85 86 90 87 89 88 89 88 86 83 79 75 74 75 87 99 100 98 99 99 98 99 99 97
69 75 78 86 85 83 84 77 77 92 89 87 89 88 92 92 86 88 82 85 97 96 93 90 90 90 89 90 88 82 85 88 91 99 98 100 97 98 98 96 94 92 86
60 71 72 62 58 65 75 81 76 64 75 93 98 98 98 95 91 90 88 86 88 99 99 98 92 91 91 92 90 91 90 96 93 99 100 98 96 96 92 90 87 82 82
72 71 82 86 97 96 96 91 95 98 99 99 100 99 98 99 99 97 93 91 90 90 95 96 96 94 91 88 95 93 90 100 94 94 95 94 93 92 88 83 80 83 85
90 91 89 88 83 83 84 84 86 88 93 92 95 96 94 96 100 100 99 100 99 99 96 100 97 98 95 91 91 90 90 89 87 94 95 92 86 81 82 83 84 83 81
68 66 66 69 72 73 73 76 79 76 79 89 96 100 99 100 99 100 100 99 100 99 100 99 100 100 97 100 97 96 91 89 86 85 86 85 84 83 81 79 78 67 56
68 70 73 78 80 78 80 82 84 90 95 98 99 100 100 100 100 100 99 99 100 97 99 96 99 99 98 99 98 90 83 79 79 72 67 63 59 57 55 52 48 43 40
73 73 75 74 77 80 82 87 89 99 99 99 99 99 99 100 100 100 99 96 97 94 96 93 93 95 92 91 85 79 75 69 63 60 56 48 42 39 35 35 42 48 28
68 69 69 70 73 75 77 81 92 95 100 100 100 100 100 99 99 98 96 94 90 87 87 88 85 84 82 82 79 78 71 66 59 55 45 38 42 43 45 59 54 51 44
69 71 74 76 77 76 74 76 84 90 91 95 98 100 100 99 99 97 92 86 82 81 83 84 85 82 81 76 72 66 61 53 53 51 43 37 52 54 54 60 60 60 56
76 79 80 82 87 86 83 77 83 91 94 97 98 98 95 93 92 88 86 82 81 82 82 82 78 78 69 66 65 59 55 53 55 61 57 46 58 55 58 59 57 57 56
83 86 89 89 91 92 98 98 95 99 100 100 100 97 91 88 87 84 76 68 66 68 64 57 60 52 53 52 52 51 54 52 61 64 59 61 69 64 62 64 66 66 59
87 88 87 88 94 100 100 100 99 100 100 100 97 94 92 91 94 76 58 51 45 44 50 52 53 52 54 56 47 47 60 63 74 71 70 67 81 77 64 61 68 69 59
94 91 90 92 94 97 99 100 100 100 98 95 90 90 87 83 81 59 44 43 49 52 42 38 39 40 43 55 64 67 74 77 84 72 78 74 88 84 76 84 81 71 68

GFSMA_925_rhum_105.txt.gz
RH
74 76 54 49 51 59 56 56 64 66 68 66 63 60 61 64 67 67 68 68 60 63 69 68 75 79 88 84 82 84 94 93 92 92 91 91 90 89 89 88 88 87 85
71 73 69 73 58 68 69 66 66 65 60 60 58 59 59 62 66 66 68 68 69 63 67 79 85 84 87 91 91 82 80 70 65 59 62 73 83 83 83 86 87 84 83
70 71 74 76 71 68 68 65 64 60 57 56 54 56 56 58 59 62 63 64 67 71 67 74 87 87 88 98 97 94 75 65 66 58 47 41 45 59 76 82 78 81 85
72 72 73 76 74 69 68 68 67 65 63 58 53 50 51 54 56 60 63 64 66 70 72 69 75 83 90 98 93 95 81 79 77 72 64 52 42 47 64 70 75 84 90
63 65 65 68 69 71 68 68 68 68 66 65 63 59 54 51 54 60 62 64 64 66 70 73 74 72 79 87 95 91 96 94 88 81 76 70 60 48 64 68 71 71 88
68 67 66 67 70 70 70 70 70 70 68 66 64 64 61 58 56 52 57 62 64 66 68 70 74 77 76 78 86 94 94 95 90 85 84 83 75 72 63 70 72 73 87
66 68 68 66 67 69 70 70 70 69 68 67 67 66 62 58 58 61 57 61 66 67 67 69 71 76 78 78 75 75 92 93 96 99 95 87 83 81 80 79 69 75 94
67 66 67 65 64 65 68 70 72 73 71 71 69 74 83 71 66 64 66 67 67 67 68 68 71 76 77 79 77 76 75 75 91 93 95 99 98 93 88 84 79 84 87
73 68 68 71 66 66 69 73 76 77 74 74 71 69 90 86 80 67 65 66 67 67 67 69 72 75 77 77 76 75 79 80 79 85 90 97 98 98 94 90 94 97 96
90 87 84 79 79 70 68 70 73 76 77 76 76 73 70 74 87 85 67 68 69 68 69 70 71 71 72 73 76 78 81 83 83 80 85 96 95 97 98 94 99 98 96
90 98 100 95 94 95 82 83 82 82 81 80 78 76 75 78 80 84 92 73 66 66 68 69 69 68 68 66 67 68 69 70 71 75 78 97 94 92 96 94 100 100 99
88 91 100 100 95 96 99 99 90 89 88 90 91 86 84 84 89 91 96 87 78 74 67 66 65 67 72 74 75 77 78 76 74 69 78 95 92 91 92 95 99 98 100
78 80 93 89 85 87 89 89 87 84 78 80 74 76 75 80 76 74 86 89 90 89 80 79 80 84 83 85 84 83 81 78 77 80 91 99 96 99 99 99 98 98 99
77 64 83 80 81 87 80 76 80 78 81 82 77 77 82 91 87 94 86 88 98 99 93 88 89 90 88 87 86 86 82 85 92 97 100 99 96 100 100 99 97 99 97
73 72 72 86 82 74 71 85 88 81 80 93 90 94 90 94 97 96 94 92 90 98 98 98 92 94 94 90 88 85 88 94 100 100 100 99 99 98 96 94 92 90 87
56 73 83 78 73 75 84 85 85 86 100 100 100 100 100 94 90 91 94 97 94 94 95 94 99 94 92 91 91 91 94 99 99 98 98 97 94 94 91 89 86 84 83
73 72 75 80 80 89 81 87 93 95 97 94 91 94 99 100 99 99 100 99 97 96 95 100 98 98 95 93 93 88 89 96 97 98 96 94 93 90 84 82 84 85 85
92 92 95 94 92 89 86 85 83 82 81 79 79 80 75 93 93 98 99 98 100 100 99 99 100 99 96 96 91 89 89 89 87 86 88 85 83 84 85 84 82 81 72
79 80 78 77 77 75 71 71 74 78 82 87 89 93 98 100 100 99 99 100 100 100 100 99 100 100 99 100 100 98 92 86 81 78 79 79 76 73 70 62 57 51 43
66 67 68 69 70 72 75 79 81 84 89 93 98 98 97 99 100 100 99 100 100 100 100 99 99 99 97 99 99 93 83 79 74 62 59 56 52 48 45 42 45 62 39
71 71 69 69 69 70 72 73 75 78 86 97 98 98 99 100 100 100 100 100 100 100 100 99 94 93 90 93 92 84 78 71 66 61 58 44 38 38 37 41 46 47 42
69 69 70 71 72 74 75 74 77 81 83 84 88 96 99 100 100 100 100 100 97 94 92 92 89 85 84 82 84 80 74 69 60 56 49 39 41 46 49 49 55 56 56
71 73 75 76 78 79 78 76 78 82 83 87 92 95 98 99 100 98 96 93 90 88 85 83 82 82 81 78 77 71 66 58 49 51 52 42 49 55 57 60 62 58 59
75 77 79 79 79 80 82 81 81 95 97 97 99 100 97 95 94 92 92 88 85 85 82 81 79 78 74 70 67 66 60 53 58 58 56 43 69 64 64 64 68 66 64
78 78 79 78 79 81 98 99 94 100 100 100 99 99 95 91 92 91 79 75 71 71 62 56 59 55 53 53 50 46 52 53 66 69 67 60 74 73 68 63 66 70 66
80 83 86 88 91 92 100 99 100 98 100 99 98 97 96 94 98 87 67 60 51 55 54 54 59 62 59 55 47 44 43 49 74 76 75 72 85 74 70 85 78 72 68

GFSMA_925_rhum_108.txt.gz
RH
74 76 74 66 65 62 60 66 72 71 70 66 65 65 67 68 68 68 68 67 61 60 63 72 79 90 94 91 88 85 83 91 93 93 93 92 91 89 88 88 89 86 86
70 64 54 60 59 55 58 64 67 68 68 66 62 64 64 65 68 69 68 69 68 65 64 72 80 86 97 97 93 79 78 80 80 88 87 86 85 84 86 87 84 86 87
71 65 52 48 45 57 60 65 68 67 64 62 60 59 60 61 64 66 66 67 67 70 70 77 91 95 97 98 99 89 73 68 70 71 75 73 71 73 79 78 80 87 91
74 74 64 72 67 67 69 69 69 64 61 58 56 54 57 57 60 61 63 65 66 69 72 73 81 88 97 98 98 97 85 83 77 73 67 57 50 57 69 68 73 85 75
71 73 72 71 73 73 72 70 70 67 66 63 58 57 52 51 54 57 62 65 66 67 70 72 74 79 84 91 95 94 94 91 89 81 76 70 60 51 68 68 68 69 77
69 67 72 72 73 73 73 72 70 69 69 68 66 65 62 58 53 53 58 62 64 66 68 70 74 76 79 81 88 95 95 96 96 83 82 83 77 71 70 77 71 70 72
68 68 66 71 73 72 72 71 71 72 72 69 69 69 67 65 62 58 56 54 62 64 66 68 71 74 77 78 79 80 90 95 95 99 99 95 88 80 77 82 84 71 78
67 68 68 68 69 70 71 72 72 72 71 71 70 76 84 70 65 59 58 63 60 65 70 70 70 72 74 79 80 80 79 76 79 89 93 96 100 96 94 88 89 75 80
68 68 67 68 68 69 70 70 70 71 72 73 74 66 90 89 82 69 67 67 69 70 70 70 72 74 75 79 79 79 78 78 78 77 89 94 88 100 99 95 91 94 95
76 70 69 69 69 67 67 67 69 74 77 75 77 75 70 77 87 82 71 69 70 70 70 70 72 72 75 78 77 74 77 81 82 83 82 88 96 92 95 99 96 94 94
92 83 78 80 82 83 77 77 84 85 81 79 76 75 76 80 82 86 91 79 71 73 73 74 76 76 76 74 72 69 69 70 72 72 74 95 98 94 95 97 96 95 99
96 99 92 86 96 95 99 93 89 95 94 93 89 87 86 84 89 93 97 89 77 70 67 72 72 71 79 70 70 75 76 78 78 77 75 82 95 91 88 93 80 95 100
95 94 95 94 95 99 99 99 99 100 100 100 99 95 86 90 86 88 92 92 92 87 78 70 68 71 80 81 82 81 80 80 80 78 77 98 97 91 94 97 91 91 96
80 76 87 93 90 88 86 87 86 90 96 90 96 97 87 83 86 89 98 94 98 99 93 84 82 86 88 87 83 82 84 83 85 91 100 99 95 96 100 100 100 99 99
74 72 69 77 83 84 71 91 92 96 92 92 91 92 89 81 78 88 89 96 82 98 99 93 90 91 90 87 85 82 84 86 97 100 98 100 96 99 99 98 98 92 91
79 81 85 82 75 87 77 81 87 87 88 83 83 91 86 93 92 95 92 100 99 97 96 92 98 95 95 93 92 91 90 90 100 100 100 99 97 96 97 95 91 88 86
77 72 80 83 86 81 86 90 98 100 98 98 100 100 100 100 100 99 100 100 100 100 99 100 99 100 96 95 96 94 95 94 93 98 98 94 93 92 90 88 86 88 86
91 88 87 86 92 91 94 95 92 91 92 91 88 87 84 84 80 86 100 99 95 99 100 100 100 100 98 97 98 93 92 92 90 90 93 93 90 86 87 88 89 87 83
90 90 90 92 93 91 89 85 80 77 76 78 82 88 90 94 99 99 100 98 100 99 100 100 100 100 100 98 98 96 90 91 89 84 86 88 89 88 84 81 76 71 63
77 75 74 74 75 74 71 70 70 70 73 75 80 87 94 95 93 100 100 98 100 100 100 100 100 100 99 100 99 98 93 89 80 78 73 68 65 62 61 60 64 60 46
65 67 68 70 69 68 67 65 65 67 70 73 76 83 95 99 99 98 100 100 100 100 100 100 100 100 99 99 99 97 92 83 77 68 61 58 52 43 36 35 42 47 41
68 67 67 66 66 68 68 67 69 72 77 78 76 79 79 84 95 99 100 100 100 100 100 100 99 96 96 96 99 94 86 76 72 67 62 55 40 37 40 41 42 52 54
66 66 66 66 69 72 74 70 70 74 78 85 91 93 92 89 98 100 100 99 100 100 99 98 96 90 84 81 82 87 82 74 57 55 56 41 37 42 49 52 63 62 60
70 71 72 74 76 78 79 80 79 79 86 90 96 99 100 97 97 98 98 96 94 92 92 90 86 82 80 78 79 79 78 68 61 56 52 42 56 60 59 62 69 75 64
75 76 78 80 82 83 88 95 94 87 93 100 99 100 100 96 94 96 92 87 86 84 82 80 79 78 73 72 72 70 65 62 63 60 56 52 67 71 68 67 69 76 70
79 82 85 86 88 88 95 100 99 88 93 98 97 98 100 97 97 97 89 72 72 78 74 69 68 58 53 54 55 54 49 51 58 66 63 62 76 74 73 76 73 75 72